Showing default

TIGER-7, 59141

Orbit data source: Space-Track

TIGER-7, 59141 is a payload satellite owned by OQ Tech (RW) in SSO that was launched on Mon, 04 Mar 2024 UTC via an FALCON 9 launch vehicle from the Air Force Western Test Range (AFWTR). Payload-class satellites include a variety of spacecraft equipped with specific instruments for various scientific and technological missions. These include communications satellites like Starlink; space stations such as the ISS; scientific satellites like the Hubble; Earth observation satellites from companies like Planet Labs, Umbra, and HawkEye 360; GPS; miniature CubeSats for education and research; and military/defense satellites.

Loading next visibility...
Identifier
59141, 2024-043AV
Orbit
SSO
Country
Flag of RWRW / RWA
Related business
Manufacturer
NanoAvionics
Mission
Operational Commercial Communications
Bus & Motor
CUBESAT 6U, Unknown motor
Mass
~10 kg wet, ~10 kg dry
Launch date (UTC)
2024-03-04 (2 years ago)
Launch vehicle
FALCON 9
Launch site
Air Force Western Test Range (AFWTR)
Object type
Payload
Rocket body
Debris
Shape & HBR
Box + 2 Pan, 0.2 m
Radar Cross Section
0.080 m², Medium (>0.1 m² and < 1m²)

Expand to show TLE details & history
Last TLE update: 16 hours ago

TLE from 16 hours ago
0 TIGER-7
1 59141U 24043AV  26221.41769455  .00009101  00000-0  16493-3 0  9994
2 59141  97.5530  14.8498 0005107 351.0154   9.1005 15.49858633136217
Epoch: 2026-08-09T10:01Z
TLE epoch observation values (Epoch: 2026-08-09T10:01:28.809Z)
Latitude
0.00004°
Longitude
-93.43522°
Altitude
416.838 km
Speed
7.663 km/s
True Right ascension
00h 59m 23s
True Declination
0° 00' 00"
Sunlit
Object was in full shadow at epoch
Visualization orbit readout
Latitude
Unknown
Longitude
Unknown
Altitude
Unknown
Speed
Unknown
Apparent Right ascension
Unknown
Apparent Declination
Unknown
Sunlit
N/A
Visualization observer readout
Local Sidereal Time
16:29:54
Azimuth
Unknown
Elevation
Unknown
Doppler factor
Unknown
Orbital elements
Apogee altitude
417.541 km
Perigee altitude
410.603 km
Semi-major axis
6,792.209 km
Eccentricity
0.00051
Inclination
97.553°
RAAN
14.8498°
Arg. of periapsis
351.0154°
True anomaly
9.10976°
Mean anomaly
9.1005°
Eccentric anomaly
9.10513°
Mean motion
3.87728 °/min
Orbital period
92.85 mins
BSTAR
0.00016493
Loading maneuver chart data...
Computing Atmospheric mass density...
Loading historical data...
Loading historical data...
Loading historical data...
Loading historical data...
Loading historical data...
Loading historical data...
Loading historical data...

Documentation

Showing up to 5 results
|